Stations météo

réclame
Mon MeteoGroup
Hallhåxåsen, Suède (2236): Température de l'air & dewpoint: 10.08.2018 03:00:00 - 16.08.2018 03:00:00 (CEST)Hallhåxåsen, Suède (2236): Vitesse du vent & gusts: 10.08.2018 03:00:00 - 16.08.2018 03:00:00 (CEST)Hallhåxåsen, Suède (2236): Direction du vent: 10.08.2018 03:00:00 - 16.08.2018 03:00:00 (CEST)Hallhåxåsen, Suède (2236): reduced air pressure: 10.08.2018 03:00:00 - 16.08.2018 03:00:00 (CEST)Hallhåxåsen, Suède (2236): visibility: 10.08.2018 03:00:00 - 16.08.2018 03:00:00 (CEST)Hallhåxåsen, Suède (2236): Quantités de précipitations: 10.08.2018 03:00:00 - 16.08.2018 03:00:00 (CEST)
Date & Time tt [°C] td [°C] ff [km/h] ff [knt] fx [km/h] fx [knt] dd ppp [hPa] vv [km] rr [mm]
16.08.2018 03:00:00 12,3 8,9 10 5 19 10 SSE 1008,5 50 0,0
16.08.2018 02:00:00 12,9 9,0 10 5 21 11 S 1008,8 50 0,0
16.08.2018 01:00:00 13,3 9,5 8 5 21 11 S 1009,1 50 0,0
16.08.2018 00:00:00 14,5 9,7 10 5 20 11 S 1008,6 50 0,0
15.08.2018 23:00:00 14,7 10,1 10 5 18 10 S 1008,8 50 0,0
15.08.2018 22:00:00 15,4 8,9 4 2 17 9 SSE 1008,5 - 0,0
15.08.2018 21:00:00 16,1 8,8 8 4 18 10 WSW 1008,3 50 0,0
15.08.2018 20:00:00 17,2 8,1 10 5 17 9 S 1008,0 50 0,0
15.08.2018 19:00:00 18,0 7,4 8 4 27 15 SSE 1007,6 50 0,0
15.08.2018 18:00:00 18,5 7,3 8 4 27 15 S 1007,6 50 0,0
15.08.2018 17:00:00 19,2 7,9 11 6 28 15 SSW 1007,5 50 0,0
15.08.2018 16:00:00 19,8 7,2 11 6 28 15 SSE 1007,4 45 0,0
15.08.2018 15:00:00 19,6 8,9 13 7 27 15 S 1007,5 44 0,0
15.08.2018 14:00:00 18,7 10,5 10 5 22 12 SSE 1007,9 48 0,0
15.08.2018 13:00:00 17,3 9,5 8 4 21 11 SSE 1008,3 50 0,0
15.08.2018 12:00:00 15,8 9,9 9 5 19 10 S 1008,7 44 0,0
15.08.2018 11:00:00 14,2 10,0 6 3 15 8 SE 1009,1 40 0,0
15.08.2018 10:00:00 12,1 9,7 5 3 15 8 ESE 1009,4 50 0,0
15.08.2018 09:00:00 11,4 9,7 5 3 11 6 E 1009,6 50 0,0
15.08.2018 08:00:00 9,9 8,8 5 3 10 6 ENE 1009,5 50 0,0
15.08.2018 07:00:00 9,3 8,7 3 1 10 5 ENE 1009,7 50 0,0
15.08.2018 06:00:00 8,7 8,1 4 2 10 5 ENE 1009,5 50 0,0
15.08.2018 05:00:00 8,5 7,9 5 3 10 5 ENE 1009,5 50 0,0
15.08.2018 04:00:00 8,3 7,4 3 2 12 7 NE 1009,7 50 0,0
15.08.2018 03:00:00 8,4 7,2 4 2 12 7 NE 1009,7 50 0,0
15.08.2018 02:00:00 8,8 7,1 6 3 12 7 NE 1009,5 50 0,0
15.08.2018 01:00:00 9,2 6,5 6 3 11 6 NE 1009,5 50 0,0
15.08.2018 00:00:00 9,0 6,3 5 3 13 7 NE 1009,6 50 0,0
14.08.2018 23:00:00 9,3 6,4 5 3 13 7 ENE 1009,5 50 0,0
14.08.2018 22:00:00 9,7 6,4 4 2 12 7 NE 1009,6 50 0,0
14.08.2018 21:00:00 10,9 6,4 4 2 13 7 ENE 1009,2 50 0,0
14.08.2018 20:00:00 12,5 6,8 4 2 14 8 ENE 1009,1 50 0,0
14.08.2018 19:00:00 13,4 5,8 6 4 18 10 ENE 1008,7 50 0,0
14.08.2018 18:00:00 14,1 5,2 6 3 21 11 E 1008,7 50 0,0
14.08.2018 17:00:00 14,4 5,5 9 5 21 11 ENE 1008,8 41 0,0
14.08.2018 16:00:00 15,0 5,2 7 4 17 9 E 1009,0 35 0,0
14.08.2018 15:00:00 13,3 5,2 5 3 17 9 NE 1009,5 50 0,0
14.08.2018 14:00:00 13,4 4,5 4 2 18 10 N 1009,7 50 0,0
14.08.2018 13:00:00 13,1 4,3 5 3 18 10 S 1009,8 43 0,0
14.08.2018 12:00:00 12,2 3,9 6 4 17 9 SSW 1010,1 45 0,0
14.08.2018 11:00:00 11,7 4,4 7 4 15 8 SSW 1010,3 50 0,0
14.08.2018 10:00:00 10,1 3,6 4 2 12 7 SSW 1010,7 50 0,0
14.08.2018 09:00:00 10,0 4,2 5 3 13 7 WSW 1010,6 50 0,0
14.08.2018 08:00:00 8,9 4,9 7 4 13 7 W 1010,8 50 0,0
14.08.2018 07:00:00 7,5 5,0 4 2 10 5 W 1010,8 50 0,0
14.08.2018 06:00:00 5,8 4,1 2 1 10 5 W 1011,4 50 0,0
14.08.2018 05:00:00 4,5 2,8 3 2 11 6 SW 1011,5 50 0,0
14.08.2018 04:00:00 5,3 3,0 0 0 19 10 N 1011,3 50 0,0
14.08.2018 03:00:00 6,4 3,4 5 3 19 10 WNW 1011,0 50 0,0
14.08.2018 02:00:00 7,1 4,9 4 2 13 7 WNW 1010,5 50 0,0
14.08.2018 01:00:00 6,8 5,1 5 3 9 5 W 1010,6 50 0,0
14.08.2018 00:00:00 6,5 5,0 4 2 12 6 W 1010,4 50 0,0
13.08.2018 23:00:00 6,7 4,7 3 2 13 7 W 1010,2 50 0,0
13.08.2018 22:00:00 8,6 5,2 8 4 20 11 W 1010,0 50 0,0
13.08.2018 21:00:00 10,1 5,7 4 2 24 13 WNW 1009,5 50 0,0
13.08.2018 20:00:00 11,0 4,9 8 4 24 13 WNW 1009,0 50 0,0
13.08.2018 19:00:00 11,8 5,9 9 5 31 17 WNW 1008,5 50 0,0
13.08.2018 18:00:00 12,2 5,6 9 5 31 17 WNW 1008,3 50 0,0
13.08.2018 17:00:00 14,0 5,9 10 6 30 16 WNW 1007,9 50 0,0
13.08.2018 16:00:00 13,9 5,3 13 7 36 19 NNW 1007,5 50 0,0
13.08.2018 15:00:00 13,4 5,1 11 6 36 19 NW 1007,5 50 0,0
13.08.2018 14:00:00 13,6 4,5 11 6 32 17 NW 1007,2 45 0,0
13.08.2018 13:00:00 14,0 5,4 13 7 29 16 NW 1006,8 46 0,0
13.08.2018 12:00:00 13,1 5,5 12 6 34 19 WNW 1006,7 47 0,0
13.08.2018 11:00:00 11,5 4,7 11 6 37 20 NW 1006,9 50 0,0
13.08.2018 10:00:00 11,3 5,2 11 6 37 20 NW 1006,7 50 0,0
13.08.2018 09:00:00 11,3 6,4 11 6 31 17 NNW 1006,1 50 0,0
13.08.2018 08:00:00 11,4 6,5 9 5 18 10 WNW 1005,8 50 0,0
13.08.2018 07:00:00 9,4 5,4 5 3 18 10 WNW 1005,9 50 0,0
13.08.2018 06:00:00 8,8 5,0 6 4 18 10 NW 1005,7 50 0,0
13.08.2018 05:00:00 8,7 5,8 4 2 19 10 WNW 1005,6 50 0,0
13.08.2018 04:00:00 9,0 6,4 8 4 20 11 W 1005,6 50 0,0
13.08.2018 03:00:00 9,1 6,2 9 5 26 14 W 1005,5 50 0,0
13.08.2018 02:00:00 8,9 6,2 9 5 26 14 WNW 1005,6 50 0,0
13.08.2018 01:00:00 7,7 5,8 4 2 21 12 WSW 1005,8 50 0,0
13.08.2018 00:00:00 8,6 6,0 10 5 26 14 W 1005,8 50 0,0
12.08.2018 23:00:00 9,4 6,5 6 4 26 14 W 1005,6 50 0,0
12.08.2018 22:00:00 9,7 6,2 10 5 25 14 W 1005,7 50 0,0
12.08.2018 21:00:00 9,9 5,9 10 5 33 18 W 1005,8 50 0,0
12.08.2018 20:00:00 10,8 6,2 6 3 42 23 WNW 1005,8 50 0,0
12.08.2018 19:00:00 12,6 5,7 16 8 42 23 WNW 1005,2 50 0,0
12.08.2018 18:00:00 13,8 5,9 14 8 41 22 NW 1005,1 50 0,0
12.08.2018 17:00:00 14,6 6,4 16 9 44 24 WNW 1005,1 48 0,0
12.08.2018 16:00:00 12,8 6,8 11 6 44 24 NW 1005,6 47 0,0
12.08.2018 15:00:00 14,5 4,8 17 9 34 19 WNW 1005,6 39 0,0
12.08.2018 14:00:00 13,8 4,7 12 7 31 17 WNW 1006,1 35 0,0
12.08.2018 13:00:00 13,4 5,8 9 5 33 18 W 1006,4 47 0,0
12.08.2018 12:00:00 13,7 5,6 14 7 33 18 W 1006,6 44 0,0
12.08.2018 11:00:00 13,2 5,1 14 7 32 18 WNW 1006,8 46 0,0
12.08.2018 10:00:00 12,5 5,2 14 7 32 18 WNW 1007,0 42 0,0
12.08.2018 09:00:00 11,4 6,7 12 6 26 14 W 1007,3 50 0,0
12.08.2018 08:00:00 9,0 7,0 9 5 18 10 W 1008,2 44 0,0
12.08.2018 07:00:00 5,9 5,3 4 2 14 7 WSW 1009,1 46 0,0
12.08.2018 06:00:00 4,6 4,3 5 3 14 7 WSW 1009,4 39 0,0
12.08.2018 05:00:00 4,1 3,8 8 4 13 7 W 1009,8 22 0,0
12.08.2018 04:00:00 4,4 4,1 4 2 10 5 W 1010,4 16 0,0
12.08.2018 03:00:00 4,4 4,0 3 1 10 6 WNW 1010,9 46 0,0
12.08.2018 02:00:00 5,2 4,5 4 2 10 6 SW 1011,0 50 0,0
12.08.2018 01:00:00 6,1 4,9 3 2 9 5 WSW 1011,3 50 0,0
12.08.2018 00:00:00 6,8 5,0 0 0 8 4 N 1011,4 50 0,0
11.08.2018 23:00:00 7,1 5,2 0 0 14 8 N 1011,7 50 0,0
11.08.2018 22:00:00 8,1 5,7 2 1 25 13 S 1011,6 50 0,0
11.08.2018 21:00:00 10,1 5,9 6 4 30 16 W 1011,0 50 0,0
11.08.2018 20:00:00 12,2 5,4 11 6 34 18 W 1010,5 50 0,0
11.08.2018 19:00:00 13,5 6,4 13 7 34 18 W 1010,4 50 0,0
11.08.2018 18:00:00 12,6 6,6 16 9 31 17 W 1010,8 50 0,0
11.08.2018 17:00:00 14,8 7,8 13 7 30 16 W 1010,3 50 0,3
11.08.2018 16:00:00 12,7 7,2 13 7 31 17 W 1010,5 48 0,0
11.08.2018 15:00:00 12,5 7,4 13 7 35 19 W 1009,9 50 0,0
11.08.2018 14:00:00 12,8 7,7 15 8 42 23 W 1008,9 50 0,1
11.08.2018 13:00:00 12,0 7,3 23 12 49 27 W 1008,5 19 0,0
11.08.2018 12:00:00 13,1 5,7 22 12 53 29 WSW 1007,2 50 0,0
11.08.2018 11:00:00 12,6 6,2 20 11 53 29 W 1005,9 45 0,0
11.08.2018 10:00:00 12,8 6,4 23 13 56 30 WSW 1004,1 50 0,0
11.08.2018 09:00:00 11,6 7,3 19 11 56 30 WSW 1003,4 50 0,0
11.08.2018 08:00:00 12,0 7,5 21 11 48 26 WSW 1002,0 50 0,0
11.08.2018 07:00:00 12,0 8,5 23 13 48 26 WSW 1000,0 50 0,0
11.08.2018 06:00:00 11,5 9,9 16 9 31 17 WSW 998,3 45 0,0
11.08.2018 05:00:00 10,0 8,9 13 7 31 17 SSW 997,9 8 0,0
11.08.2018 04:00:00 11,8 7,5 12 6 32 18 S 997,2 50 0,0
11.08.2018 03:00:00 12,4 6,7 12 7 40 22 S 997,2 50 0,0
11.08.2018 02:00:00 13,3 6,6 22 12 40 22 S 997,6 50 0,0
11.08.2018 01:00:00 13,8 8,8 13 7 25 14 S 997,9 50 0,0
11.08.2018 00:00:00 13,7 9,7 11 6 26 14 S 998,3 50 0,0
10.08.2018 23:00:00 14,1 10,7 15 8 27 15 S 998,5 50 0,0
10.08.2018 22:00:00 15,0 11,6 12 6 34 19 S 998,6 50 0,0
10.08.2018 21:00:00 17,2 14,5 14 8 34 19 S 998,3 50 0,0
10.08.2018 20:00:00 18,0 16,7 11 6 22 12 ESE 998,1 20 0,0
10.08.2018 19:00:00 18,3 17,0 10 5 23 12 SE 999,1 19 0,0
10.08.2018 18:00:00 18,4 17,2 11 6 23 12 SE 999,5 16 0,1
10.08.2018 17:00:00 17,1 16,5 10 6 29 16 ESE 1000,9 12 0,2
10.08.2018 16:00:00 16,5 15,9 14 7 29 16 ESE 1002,0 15 0,0
10.08.2018 15:00:00 16,1 15,5 13 7 26 14 E 1002,9 10 0,5
10.08.2018 14:00:00 15,5 15,2 11 6 25 13 E 1004,0 4,2 1,4
10.08.2018 13:00:00 14,3 14,0 7 4 18 10 ENE 1005,0 4,6 3,5
10.08.2018 12:00:00 13,7 13,2 5 3 18 10 NE 1007,3 4,9 2,2
10.08.2018 11:00:00 13,7 12,9 5 3 18 10 NE 1008,5 16 0,5
10.08.2018 10:00:00 13,5 12,4 5 3 22 12 NE 1009,2 24 0,3
10.08.2018 09:00:00 13,9 11,4 6 3 22 12 NE 1009,3 40 0,0
10.08.2018 08:00:00 14,1 11,1 5 3 16 9 NE 1010,7 50 0,0
10.08.2018 07:00:00 13,2 10,4 5 3 16 8 NE 1010,8 50 0,0
10.08.2018 06:00:00 12,9 9,7 6 4 16 9 NNE 1011,5 50 0,0
10.08.2018 05:00:00 12,6 9,8 5 3 16 9 NNE 1012,0 50 0,0
10.08.2018 04:00:00 13,0 9,6 7 4 17 9 NNE 1012,8 50 0,0
10.08.2018 03:00:00 13,3 10,1 6 3 17 9 NNE 1013,1 50 0,0

tt = Température de l'air
td = dewpoint
ff = Vitesse du vent
fx = gusts
dd = Direction du vent
ppp = reduced air pressure
vv = visibility
rr = Quantités de précipitations

stations d'obs. à proximité